Seward, AK

11:33 AM AKST on December 10, 2016 (GMT -0900)
Seward

Weather History for PAWD - August, 2012

Change the Weather History Date:

Sunday, August 26, 2012

  Actual Average Record
Temperature  
Mean Temperature 48 °F -  
Max Temperature 55 °F 62 °F 78 °F (1966)
Min Temperature 42 °F 47 °F 39 °F (1961)
Degree Days  
Heating Degree Days 16    
Moisture  
Dew Point 49 °F    
Average Humidity 93    
Maximum Humidity 100    
Minimum Humidity 82    
Precipitation  
Precipitation 0.27 in - - ()
Sea Level Pressure  
Sea Level Pressure 29.92 in    
Wind  
Wind Speed 5 mph (South)    
Max Wind Speed 14 mph    
Max Gust Speed 16 mph    
Visibility 9 miles    
Events Rain    
Averages and records for this station are not official NWS values.
T = Trace of Precipitation, MM = Missing Value Source: NWS Daily Summary

Daily Weather History Graph

Daily Weather History Graph

Search for Another Location

Airport or City:

Trip Planner

Search our weather history database for the weather conditions in past years. The results will help you decide how hot, cold, wet, or windy it might be!

Date:

Astronomy

Aug. 26, 2012 Rise Set
Actual Time 6:39 AM AKDT 9:17 PM AKDT
Civil Twilight 5:52 AM AKDT 10:03 PM AKDT
Nautical Twilight 4:49 AM AKDT 11:05 PM AKDT
Astronomical Twilight 3:17 AM AKDT 12:34 AM AKDT
Moon 6:47 PM AKDT (8/26) 12:33 AM AKDT (8/26)
Length of Visible Light 16h 10m
Length of Day
14h 37m
Waxing Gibbous, 75% of the Moon is Illuminated
Aug 26
Waxing Gibbous
Aug 31
Full
Sep 8
Last Quarter
Sep 15
New
Sep 22
First Quarter

Hourly Weather History & Observations

Time (AKDT) Temp. Windchill Dew Point Humidity Pressure Visibility Wind Dir Wind Speed Gust Speed Precip Events Conditions
12:53 AM 46.9 °F - 46.0 °F 97% 30.03 in 10.0 mi NNW 3.5 mph - N/A   Clear
1:53 AM 45.0 °F - 44.1 °F 97% 30.03 in 10.0 mi North - - N/A   Clear
2:53 AM 45.0 °F - 44.1 °F 97% 30.02 in 10.0 mi North - - N/A   Clear
3:53 AM 43.0 °F 40.3 °F 42.1 °F 97% 30.03 in 10.0 mi North 4.6 mph - N/A   Clear
4:53 AM 43.0 °F 41.3 °F 42.1 °F 97% 30.01 in 10.0 mi NNW 3.5 mph - N/A   Partly Cloudy
5:06 AM 42.8 °F 41.1 °F 42.8 °F 100% 30.01 in 10.0 mi NNW 3.5 mph - N/A   Mostly Cloudy
5:48 AM 44.6 °F - 42.8 °F 93% 30.01 in 10.0 mi Calm Calm - N/A   Overcast
5:53 AM 45.0 °F - 44.1 °F 97% 30.01 in 10.0 mi Calm Calm - N/A   Overcast
6:53 AM 46.9 °F - 45.0 °F 93% 30.01 in 10.0 mi Calm Calm - N/A   Overcast
7:53 AM 46.9 °F - 46.0 °F 97% 30.00 in 10.0 mi Calm Calm - N/A   Overcast
8:53 AM 48.9 °F - 48.0 °F 97% 29.98 in 10.0 mi Calm Calm - 0.00 in Rain Light Rain
9:53 AM 50.0 °F - 48.9 °F 96% 29.97 in 9.0 mi Calm Calm - 0.02 in Rain Light Rain
10:53 AM 53.1 °F - 51.1 °F 93% 29.98 in 7.0 mi Variable 5.8 mph - 0.01 in Rain Light Rain
11:11 AM 53.6 °F - 51.8 °F 94% 29.96 in 3.0 mi South 6.9 mph - 0.02 in Rain Light Rain
11:23 AM 53.6 °F - 51.8 °F 94% 29.96 in 5.0 mi South 6.9 mph - 0.03 in Rain Light Rain
11:53 AM 53.1 °F - 51.1 °F 93% 29.96 in 10.0 mi South 8.1 mph 16.1 mph 0.03 in Rain Light Rain
12:53 PM 54.0 °F - 51.1 °F 90% 29.94 in 10.0 mi South 4.6 mph - 0.00 in   Overcast
1:53 PM 54.0 °F - 51.1 °F 90% 29.94 in 10.0 mi SSW 12.7 mph - N/A   Overcast
2:17 PM 55.4 °F - 50.0 °F 82% 29.94 in 10.0 mi SSW 12.7 mph - N/A   Overcast
2:26 PM 53.6 °F - 51.8 °F 94% 29.94 in 10.0 mi SSW 12.7 mph - N/A   Overcast
2:53 PM 55.0 °F - 51.1 °F 86% 29.93 in 10.0 mi SSW 12.7 mph - N/A   Overcast
3:48 PM 55.4 °F - 51.8 °F 88% 29.92 in 10.0 mi SSW 13.8 mph - N/A   Overcast
3:53 PM 55.9 °F - 51.1 °F 84% 29.92 in 10.0 mi SSW 12.7 mph - N/A   Overcast
4:53 PM 55.0 °F - 50.0 °F 83% 29.91 in 10.0 mi SW 9.2 mph - N/A   Overcast
5:24 PM 53.6 °F - 51.8 °F 94% 29.90 in 10.0 mi Variable 3.5 mph - 0.00 in Rain Light Rain
5:36 PM 53.6 °F - 51.8 °F 94% 29.90 in 6.0 mi South 5.8 mph - 0.01 in Rain Light Rain
5:45 PM 53.6 °F - 51.8 °F 94% 29.89 in 5.0 mi SSE 10.4 mph - 0.01 in Rain Light Rain
5:53 PM 54.0 °F - 51.1 °F 90% 29.89 in 8.0 mi SSE 9.2 mph - 0.01 in Rain Light Rain
6:53 PM 54.0 °F - 51.1 °F 90% 29.87 in 10.0 mi South 8.1 mph - 0.00 in Rain Light Rain
7:13 PM 53.6 °F - 51.8 °F 94% 29.86 in 10.0 mi South 10.4 mph - 0.00 in   Overcast
7:39 PM 53.6 °F - 51.8 °F 94% 29.85 in 10.0 mi South 10.4 mph 16.1 mph 0.01 in Rain Light Rain
7:53 PM 54.0 °F - 51.1 °F 90% 29.85 in 6.0 mi South 5.8 mph - 0.02 in Rain Light Rain
8:53 PM 53.1 °F - 51.1 °F 93% 29.83 in 6.0 mi SSE 9.2 mph - 0.01 in Rain Light Rain
9:48 PM 53.6 °F - 51.8 °F 94% 29.81 in 5.0 mi SSE 13.8 mph - 0.08 in Rain Light Rain
9:53 PM 53.1 °F - 51.1 °F 93% 29.82 in 4.0 mi SSE 11.5 mph - 0.08 in Rain Rain
10:11 PM 53.6 °F - 51.8 °F 94% 29.81 in 8.0 mi North - - 0.02 in Rain Light Rain
10:53 PM 53.1 °F - 51.1 °F 93% 29.79 in 8.0 mi North - - 0.06 in Rain Light Rain
11:26 PM 53.6 °F - 51.8 °F 94% 29.79 in 7.0 mi North - - 0.02 in Rain Light Rain
11:53 PM 53.1 °F - 51.1 °F 93% 29.79 in 10.0 mi North - - 0.03 in Rain Light Rain